| time (UTC) | temp C | wind direction | speed KPH | gust KPH | rain 1hr cm | rain 24hr cm | rain mn cm | humidity % | barometer mb |
| 20260504181506 | 23 | 227 | 4.8 | 19.3 | 0.00 | 0.00 | 0.00 | 41 | 1015.3 |
| 20260504180011 | 22 | 202 | 9.7 | 14.5 | 0.00 | 0.00 | 0.00 | 40 | 1015.3 |
| 20260504174518 | 22 | 258 | 3.2 | 12.9 | 0.00 | 0.00 | 0.00 | 42 | 1015.4 |
| 20260504173020 | 22 | 194 | 6.4 | 12.9 | 0.00 | 0.00 | 0.00 | 43 | 1015.4 |
| 20260504171506 | 22 | 256 | 4.8 | 19.3 | 0.00 | 0.00 | 0.00 | 43 | 1015.5 |
| 20260504081522 | 6 | 183 | 0.0 | 0.0 | 0.00 | 0.00 | 0.00 | 84 | 1016.6 |
| 20260504050003 | 9 | 176 | 0.0 | 0.0 | 0.00 | 0.00 | 0.00 | 71 | 1016.9 |
| 20260504044502 | 10 | 177 | 0.0 | 1.6 | 0.00 | 0.00 | 0.00 | 68 | 1016.8 |
| 20260504043009 | 11 | 178 | 3.2 | 4.8 | 0.00 | 0.00 | 0.00 | 64 | 1016.6 |
| 20260504041510 | 11 | 175 | 1.6 | 6.4 | 0.00 | 0.00 | 0.00 | 63 | 1016.5 |
| 20260504040015 | 11 | 170 | 0.0 | 4.8 | 0.00 | 0.00 | 0.00 | 62 | 1016.8 |
| 20260504034520 | 11 | 172 | 1.6 | 6.4 | 0.00 | 0.00 | 0.00 | 60 | 1016.6 |
| 20260504033003 | 11 | 360 | 1.6 | 4.8 | 0.00 | 0.00 | 0.00 | 60 | 1016.9 |
| 20260504031508 | 11 | 171 | 0.0 | 4.8 | 0.00 | 0.00 | 0.00 | 58 | 1016.8 |
| 20260504030011 | 11 | 173 | 0.0 | 1.6 | 0.00 | 0.00 | 0.00 | 61 | 1016.8 |
| 20260504024516 | 11 | 169 | 0.0 | 3.2 | 0.00 | 0.00 | 0.00 | 63 | 1016.8 |
| 20260504023022 | 11 | 169 | 0.0 | 1.6 | 0.00 | 0.00 | 0.00 | 59 | 1016.7 |
| 20260504021504 | 12 | 169 | 0.0 | 1.6 | 0.00 | 0.00 | 0.00 | 59 | 1016.6 |
| 20260504020007 | 12 | 169 | 0.0 | 3.2 | 0.00 | 0.00 | 0.00 | 54 | 1016.1 |
| 20260504014510 | 13 | 360 | 0.0 | 3.2 | 0.00 | 0.00 | 0.00 | 57 | 1015.9 |
| 20260504013031 | 13 | 165 | 0.0 | 3.2 | 0.00 | 0.00 | 0.00 | 52 | 1015.7 |
| 20260504011522 | 13 | 165 | 0.0 | 3.2 | 0.00 | 0.00 | 0.00 | 52 | 1015.7 |
| 20260504010004 | 13 | 165 | 0.0 | 3.2 | 0.00 | 0.00 | 0.00 | 52 | 1015.5 |
| 20260504004508 | 15 | 165 | 0.0 | 3.2 | 0.00 | 0.00 | 0.00 | 50 | 1015.5 |
| 20260504003024 | 15 | 165 | 0.0 | 1.6 | 0.00 | 0.00 | 0.00 | 47 | 1015.4 |
| 20260504001518 | 16 | 165 | 0.0 | 1.6 | 0.00 | 0.00 | 0.00 | 45 | 1015.3 |
| 20260504000024 | 17 | 165 | 0.0 | 3.2 | 0.00 | 0.00 | 0.00 | 42 | 1015.3 |
| 20260503234508 | 17 | 164 | 1.6 | 8.0 | 0.00 | 0.00 | 0.00 | 40 | 1015.3 |
| 20260503233011 | 18 | 168 | 3.2 | 8.0 | 0.00 | 0.00 | 0.00 | 38 | 1015.3 |
| 20260503231517 | 18 | 180 | 1.6 | 12.9 | 0.00 | 0.00 | 0.00 | 37 | 1015.3 |
| 20260503230020 | 18 | 164 | 8.0 | 16.1 | 0.00 | 0.00 | 0.00 | 34 | 1015.1 |
| 20260503224529 | 19 | 167 | 4.8 | 12.9 | 0.00 | 0.00 | 0.00 | 34 | 1015.3 |
| 20260503223008 | 19 | 287 | 0.0 | 14.5 | 0.00 | 0.00 | 0.00 | 33 | 1015.4 |
| 20260503221512 | 18 | 196 | 1.6 | 9.7 | 0.00 | 0.00 | 0.00 | 33 | 1015.6 |
| 20260503220022 | 18 | 224 | 9.7 | 16.1 | 0.00 | 0.00 | 0.00 | 32 | 1015.8 |
| 20260503214523 | 18 | 174 | 3.2 | 14.5 | 0.00 | 0.00 | 0.00 | 32 | 1015.9 |
| 20260503213027 | 18 | 194 | 9.7 | 20.9 | 0.00 | 0.00 | 0.00 | 33 | 1015.9 |
| 20260503211509 | 18 | 250 | 1.6 | 16.1 | 0.00 | 0.00 | 0.00 | 34 | 1016.1 |
| 20260503210004 | 18 | 211 | 4.8 | 16.1 | 0.00 | 0.00 | 0.00 | 35 | 1016.2 |
| 20260503204505 | 18 | 242 | 3.2 | 14.5 | 0.00 | 0.00 | 0.00 | 34 | 1016.5 |
| 20260503203006 | 18 | 112 | 4.8 | 14.5 | 0.00 | 0.00 | 0.00 | 36 | 1016.7 |
| 20260503201510 | 18 | 272 | 6.4 | 17.7 | 0.00 | 0.00 | 0.00 | 35 | 1017.0 |
| 20260503200012 | 17 | 319 | 6.4 | 17.7 | 0.00 | 0.00 | 0.00 | 37 | 1017.1 |
| 20260503194519 | 17 | 289 | 3.2 | 14.5 | 0.00 | 0.00 | 0.00 | 34 | 1017.3 |
| 20260503193004 | 17 | 286 | 0.0 | 16.1 | 0.00 | 0.00 | 0.00 | 36 | 1017.4 |
| 20260503191508 | 17 | 324 | 3.2 | 17.7 | 0.00 | 0.00 | 0.00 | 36 | 1017.7 |
| 20260503190010 | 17 | 182 | 6.4 | 14.5 | 0.00 | 0.00 | 0.00 | 36 | 1017.9 |
| 20260503184519 | 16 | 250 | 3.2 | 17.7 | 0.00 | 0.00 | 0.00 | 37 | 1018.2 |
| 20260503183024 | 16 | 182 | 8.0 | 14.5 | 0.00 | 0.00 | 0.00 | 34 | 1018.4 |